Location: Pasadena, ca
(34.1243°N, 118.1037°W)
Time: 01:35:11
(UTC-08:00)

Tiangong 1 - Pass Details

Date: 14 November 2017
Orbit: 284 x 308 km, 42.8° (Epoch: 22 November)

Event Time Altitude Azimuth Distance (km) Brightness Sun altitude
Exits shadow 05:05:04 42° 197° (SSW) 421 1.2 -16.6°
Drops below altitude 10° 05:07:18 10° 138° (SE) 1,132 4.2 -16.1°
Sets 05:09:17 0° 132° (SE) 1,954 5.7 -15.7°
